Location: Muenchen
(48.1800°N, 11.5800°E)
Time: 08:37:30
(UTC+02:00)

Sich 1 Rocket - Visible Passes

Search period start: 07 May 2015 00:00
Search period end: 17 May 2015 00:00
Orbit: 618 x 653 km, 82.5° (Epoch: 06 May)

Date Brightness Start Highest point End Pass type
(mag) Time Alt. Az. Time Alt. Az. Time Alt. Az.
12 May 6.6 04:47:59 10° ESE 04:50:13 14° E 04:52:40 10° NE visible
15 May 6.7 04:18:10 10° E 04:19:39 12° E 04:21:22 10° ENE visible
16 May 6.2 04:38:23 10° SE 04:41:51 22° E 04:45:26 10° NE visible
